Roseburg, OR

3:26 PM PST on November 12, 2019 (GMT -0800)
Roseburg Regional

Weather History for KRBG - October, 2019

Change the Weather History Date:

Tuesday, October 15, 2019

  Actual Average Record
Temperature  
Mean Temperature 54 °F 56 °F  
Max Temperature 66 °F 67 °F 87 °F (2015)
Min Temperature 43 °F 45 °F 33 °F (1946)
Degree Days  
Heating Degree Days 10 9  
Month to date heating degree days 106  
Since 1 July heating degree days 195  
Cooling Degree Days 0 0  
Month to date cooling degree days 2  
Year to date cooling degree days 478  
Growing Degree Days 4 (Base 50)    
Moisture  
Dew Point 44 °F    
Average Humidity 83    
Maximum Humidity 97    
Minimum Humidity 50    
Precipitation  
Precipitation 0.00 in 0.08 in 2.71 in (1947)
Month to date precipitation 0.91  
Year to date precipitation 21.52  
Sea Level Pressure  
Sea Level Pressure 30.03 in    
Wind  
Wind Speed 1 mph (NW)    
Max Wind Speed 6 mph    
Max Gust Speed -    
Visibility 5 miles    
Events Fog    
T = Trace of Precipitation, MM = Missing Value Source: NWS Daily Summary

Daily Weather History Graph

Daily Weather History Graph

Search for Another Location

Airport or City:

Astronomy

Oct. 15, 2019 Rise Set
Actual Time 7:27 AM PDT 6:30 PM PDT
Civil Twilight 6:58 AM PDT 6:59 PM PDT
Nautical Twilight 6:25 AM PDT 7:32 PM PDT
Astronomical Twilight 5:52 AM PDT 8:05 PM PDT
Moon 7:51 PM PDT (10/15) 9:04 AM PDT (10/15)
Length of Visible Light 12h 00m
Length of Day
11h 03m
Waning Gibbous, 97% of the Moon is Illuminated
Oct 15
Waning Gibbous
Oct 21
Last Quarter
Oct 27
New
Nov 4
First Quarter
Nov 12
Full

Hourly Weather History & Observations

Time (PDT) Temp. Windchill Dew Point Humidity Pressure Visibility Wind Dir Wind Speed Gust Speed Precip Events Conditions
2:53 AM 45.0 °F - 41.0 °F 86% 30.02 in 10.0 mi Calm Calm - N/A   Clear
3:39 AM 44.1 °F - 41.0 °F 89% 30.01 in 9.0 mi Calm Calm - N/A   Scattered Clouds
3:53 AM 43.0 °F - 41.0 °F 93% 30.01 in 2.5 mi Calm Calm - N/A   Mostly Cloudy
4:01 AM 43.0 °F - 41.0 °F 93% 30.01 in 1.5 mi Calm Calm - N/A   Overcast
4:05 AM 43.0 °F - 41.0 °F 93% 30.01 in 3.0 mi Calm Calm - N/A   Overcast
4:11 AM 43.0 °F - 41.0 °F 93% 30.01 in 1.8 mi Calm Calm - N/A   Overcast
4:20 AM 43.0 °F - 42.1 °F 97% 30.01 in 0.5 mi Calm Calm - N/A Fog Fog
4:32 AM 43.0 °F - 42.1 °F 97% 30.01 in 0.2 mi Calm Calm - N/A Fog Fog
4:42 AM 44.1 °F - 42.1 °F 93% 30.00 in 0.5 mi Calm Calm - N/A Fog Fog
4:53 AM 43.0 °F - 42.1 °F 97% 30.01 in 0.5 mi Calm Calm - N/A Fog Fog
5:53 AM 43.0 °F - 42.1 °F 97% 30.02 in 0.5 mi Calm Calm - N/A Fog Fog
6:01 AM 43.0 °F - 42.1 °F 97% 30.02 in 0.2 mi Calm Calm - N/A Fog Fog
6:53 AM 43.0 °F - 42.1 °F 97% 30.04 in 0.2 mi Calm Calm - N/A Fog Fog
7:53 AM 43.0 °F - 41.0 °F 93% 30.06 in 0.2 mi Calm Calm - N/A Fog Fog
8:04 AM 43.0 °F - 41.0 °F 93% 30.05 in 0.2 mi Calm Calm - N/A Fog Fog
8:53 AM 44.1 °F - 43.0 °F 96% 30.08 in 0.2 mi Calm Calm - N/A Fog Fog
9:53 AM 44.1 °F - 43.0 °F 96% 30.08 in 0.2 mi Calm Calm - N/A Fog Fog
10:14 AM 45.0 °F - 43.0 °F 93% 30.07 in 0.5 mi Calm Calm - N/A Fog Fog
10:26 AM 45.0 °F 43.5 °F 44.1 °F 97% 30.08 in 2.0 mi Variable 3.5 mph - N/A   Overcast
10:37 AM 46.0 °F - 44.1 °F 93% 30.08 in 3.0 mi Calm Calm - N/A   Overcast
10:53 AM 46.0 °F - 44.1 °F 93% 30.09 in 3.0 mi Calm Calm - N/A   Overcast
11:26 AM 50.0 °F - 45.0 °F 83% 30.08 in 7.0 mi SW 3.5 mph - N/A   Scattered Clouds
11:53 AM 52.0 °F - 46.0 °F 80% 30.08 in 9.0 mi SSW 3.5 mph - N/A   Clear
12:53 PM 57.9 °F - 46.9 °F 67% 30.07 in 10.0 mi SW 3.5 mph - N/A   Clear
1:53 PM 64.0 °F - 46.0 °F 52% 30.05 in 10.0 mi North 5.8 mph - N/A   Clear
2:53 PM 64.9 °F - 46.9 °F 52% 30.03 in 10.0 mi North 4.6 mph - N/A   Clear
3:53 PM 66.0 °F - 46.9 °F 50% 30.01 in 10.0 mi North 5.8 mph - N/A   Clear
4:53 PM 64.9 °F - 46.9 °F 52% 30.00 in 10.0 mi NNW 4.6 mph - N/A   Clear
5:53 PM 64.9 °F - 48.0 °F 54% 29.99 in 10.0 mi NW 3.5 mph - N/A   Clear
6:53 PM 62.1 °F - 48.9 °F 62% 29.99 in 10.0 mi North 3.5 mph - N/A   Clear
7:53 PM 59.0 °F - 48.9 °F 69% 29.99 in 10.0 mi Calm Calm - N/A   Clear
8:53 PM 57.9 °F - 48.0 °F 70% 29.99 in 10.0 mi Calm Calm - N/A   Clear
9:53 PM 55.9 °F - 48.0 °F 75% 29.97 in 10.0 mi Calm Calm - N/A   Clear
10:53 PM 54.0 °F - 46.9 °F 77% 29.96 in 10.0 mi Calm Calm - N/A   Clear
11:53 PM 54.0 °F - 46.9 °F 77% 29.97 in 10.0 mi Calm Calm - N/A   Clear